Simultaneous Nadir Overpasses (SNOs) Predictions

Prediction of SNOs between AQUA and NOAA-19 Satellite Orbit:

Table of predicted SNOs for the next 14.0 days since TLE Epoch: 6/16/2017
Index Date (AQUA) Time (AQUA) Lat,Lon (AQUA) SZA (AQUA ) Date (NOAA-19) Time (NOAA-19) Lat,Lon (NOAA-19) SZA (NOAA-19 ) Distance(km) Time Diff (sec)
1 06/17/2017 23:54:06 80.95, 141.08 59.85 06/17/2017 23:53:02 80.95, 141.00 59.89 1.28 64
2 06/18/2017 00:43:32 -80.95, -51.24 120.16 06/18/2017 00:44:02 -80.95, -51.42 120.15 3.24 30
3 06/20/2017 05:27:49 -80.97,-122.53 120.14 06/20/2017 05:26:51 -80.95,-122.52 120.12 1.34 58
4 06/20/2017 06:17:15 80.95, 45.39 59.82 06/20/2017 06:17:51 80.95, 45.20 59.83 3.39 36
5 06/22/2017 11:01:31 80.94, -25.62 59.83 06/22/2017 11:00:40 80.95, -25.73 59.87 2.40 51
6 06/22/2017 11:50:58 -80.96, 141.80 120.14 06/22/2017 11:51:39 -80.95, 141.81 120.16 0.43 41
7 06/24/2017 16:35:13 -80.95, 70.81 120.11 06/24/2017 16:34:27 -80.95, 70.65 120.06 2.77 46
8 06/24/2017 17:24:40 80.96,-121.72 59.93 06/24/2017 17:25:28 80.95,-121.61 59.89 2.14 48
9 06/26/2017 22:08:56 80.96, 167.23 60.01 06/26/2017 22:08:17 80.95, 167.39 60.00 2.95 39
10 06/26/2017 22:58:22 -80.95, -24.92 120.03 06/26/2017 22:59:15 -80.95, -25.08 120.03 3.00 53
11 06/29/2017 03:42:38 -80.95, -95.96 119.92 06/29/2017 03:42:03 -80.95, -95.93 119.90 1.18 35




NCC Satellite Simultaneous Nadir Overpasses (SNOs) Prediction Service
